Location: Albuquerque Trailhead
(34.7934°N, 106.3736°W)
Time: 23:17:47
(UTC+00:00)

Lacrosse 4 Rocket - Pass Details

Date: 20 June 2021
Orbit: 543 x 614 km, 68.0° (Epoch: 01 August)

Event Time Altitude Azimuth Distance (km) Brightness Sun altitude
Rises 09:13:54 0° 339° (NNW) 2,726 5.4 -24.5°
Reaches altitude 10° 09:16:09 10° 344° (NNW) 1,821 4.5 -24.2°
Maximum altitude 09:20:09 57° 63° (ENE) 644 1.8 -23.8°
Enters shadow 09:21:01 45° 111° (ESE) 741 2.0 -23.7°
